Location: Newark
(12.4436°N, 0.6167°W)
Time: 01:59:02
(UTC+00:00)

Vanguard 2 Rocket - Visible Passes

Search period start: 18 January 2021 00:00
Search period end: 28 January 2021 00:00
Orbit: 554 x 3325 km, 32.9° (Epoch: 17 January)

Date Brightness Start Highest point End Pass type
(mag) Time Alt. Az. Time Alt. Az. Time Alt. Az.
18 Jan 10.0 03:21:17 11° S 03:21:17 11° S 03:22:08 10° S visible
19 Jan 9.0 18:34:02 10° NNW 18:35:57 11° NNW 18:37:40 10° N visible
21 Jan 8.9 18:49:55 10° NNW 18:50:53 10° N 18:51:49 10° N visible
23 Jan 8.7 19:03:33 10° NNW 19:05:56 12° N 19:07:54 10° NNE visible
24 Jan 9.1 20:17:17 10° NNW 20:17:41 11° NNW 20:17:41 11° NNW visible
25 Jan 8.4 19:16:51 10° NNW 19:20:54 16° N 19:21:40 16° NNE visible
26 Jan 8.7 18:15:12 10° NW 18:20:22 17° N 18:24:16 10° NE visible
26 Jan 9.0 20:30:37 10° NW 20:31:31 14° NW 20:31:31 14° NW visible
27 Jan 7.9 19:30:13 10° NW 19:35:35 25° NNE 19:35:35 25° NNE visible
